New Haven, CT

9:12 AM EDT on July 28, 2017 (GMT -0400)
Tweed-New Haven

Weather History for KHVN - May, 2014

Change the Weather History Date:

Thursday, May 29, 2014

  Actual Average Record
Temperature  
Mean Temperature 54 °F -  
Max Temperature 64 °F 67 °F 94 °F (1969)
Min Temperature 44 °F 52 °F 44 °F (2014)
Degree Days  
Heating Degree Days 12    
Growing Degree Days 4 (Base 50)    
Moisture  
Dew Point 43 °F    
Average Humidity 66    
Maximum Humidity 85    
Minimum Humidity 46    
Precipitation  
Precipitation 0.00 in - - ()
Sea Level Pressure  
Sea Level Pressure 30.20 in    
Wind  
Wind Speed 7 mph (East)    
Max Wind Speed 12 mph    
Max Gust Speed -    
Visibility 10 miles    
Events      
Averages and records for this station are not official NWS values.
T = Trace of Precipitation, MM = Missing Value Source: NWS Daily Summary

Daily Weather History Graph

Daily Weather History Graph

Search for Another Location

Airport or City:

Trip Planner

Search our weather history database for the weather conditions in past years. The results will help you decide how hot, cold, wet, or windy it might be!

Date:

Astronomy

May. 29, 2014 Rise Set
Actual Time 5:22 AM EDT 8:15 PM EDT
Civil Twilight 4:49 AM EDT 8:48 PM EDT
Nautical Twilight 4:08 AM EDT 9:30 PM EDT
Astronomical Twilight 3:20 AM EDT 10:18 PM EDT
Moon 6:14 AM EDT (5/29) 9:03 PM EDT (5/29)
Length of Visible Light 15h 59m
Length of Day
14h 53m
New Moon, 1% of the Moon is Illuminated
May 29
New Moon
Jun 5
First Quarter
Jun 13
Full
Jun 19
Last Quarter
Jun 27
New

Hourly Weather History & Observations

Time (EDT) Temp. Windchill Dew Point Humidity Pressure Visibility Wind Dir Wind Speed Gust Speed Precip Events Conditions
12:53 AM 52.0 °F - 43.0 °F 71% 30.20 in 10.0 mi NE 9.2 mph - N/A   Overcast
1:51 AM 50.0 °F - 42.8 °F 76% 30.20 in 10.0 mi NNE 8.1 mph - N/A   Scattered Clouds
1:53 AM 50.0 °F - 42.8 °F 76% 30.20 in 10.0 mi NNE 6.9 mph - N/A   Partly Cloudy
2:53 AM 46.9 °F - 41.0 °F 80% 30.20 in 10.0 mi NNE 3.5 mph - N/A   Clear
3:53 AM 46.4 °F 43.5 °F 41.0 °F 81% 30.20 in 10.0 mi NNE 5.8 mph - N/A   Clear
4:53 AM 44.6 °F - 39.2 °F 81% 30.21 in 10.0 mi Calm Calm - N/A   Clear
5:53 AM 44.1 °F 42.5 °F 39.9 °F 85% 30.21 in 10.0 mi North 3.5 mph - N/A   Scattered Clouds
6:53 AM 48.9 °F - 42.1 °F 77% 30.23 in 10.0 mi North 8.1 mph - N/A   Scattered Clouds
7:53 AM 52.0 °F - 42.1 °F 69% 30.22 in 10.0 mi North 5.8 mph - N/A   Clear
8:53 AM 55.9 °F - 42.1 °F 60% 30.22 in 10.0 mi North 8.1 mph - N/A   Scattered Clouds
9:53 AM 60.1 °F - 43.0 °F 53% 30.23 in 10.0 mi NNE 8.1 mph - N/A   Scattered Clouds
10:53 AM 60.1 °F - 43.0 °F 53% 30.23 in 10.0 mi SE 11.5 mph - N/A   Scattered Clouds
12:53 PM 62.1 °F - 41.0 °F 46% 30.23 in 10.0 mi SE 6.9 mph - N/A   Scattered Clouds
1:53 PM 62.1 °F - 45.0 °F 53% 30.21 in 10.0 mi South 9.2 mph - N/A   Scattered Clouds
2:53 PM 62.1 °F - 45.0 °F 53% 30.21 in 10.0 mi South 5.8 mph - N/A   Scattered Clouds
3:53 PM 63.0 °F - 45.0 °F 52% 30.19 in 10.0 mi South 8.1 mph - N/A   Scattered Clouds
4:53 PM 63.0 °F - 44.1 °F 50% 30.18 in 10.0 mi SSE 6.9 mph - N/A   Mostly Cloudy
6:53 PM 60.1 °F - 46.9 °F 62% 30.17 in 10.0 mi SSE 9.2 mph - N/A   Mostly Cloudy
7:53 PM 59.0 °F - 46.9 °F 64% 30.17 in 10.0 mi SSE 4.6 mph - N/A   Mostly Cloudy
8:53 PM 57.0 °F - 46.0 °F 67% 30.17 in 10.0 mi South 9.2 mph - N/A   Mostly Cloudy
9:53 PM 55.9 °F - 46.0 °F 69% 30.17 in 10.0 mi South 6.9 mph - N/A   Clear
10:53 PM 54.0 °F - 46.0 °F 75% 30.18 in 10.0 mi Calm Calm - N/A   Clear
11:53 PM 54.0 °F - 46.0 °F 75% 30.17 in 10.0 mi Calm Calm - N/A   Clear